Tracking 19170 objects as of 23-May-2018
HD Live streaming from Space Station
objects crossing your sky now

TELSTAR 303

Track TELSTAR 303 now!
TELSTAR 303 is classified as:


NORAD ID: 15826
Int'l Code: 1985-048D
Perigee: 35,897.8 km
Apogee: 35,914.4 km
Inclination: 15.2 °
Period: 1,441.8 minutes
Semi major axis: 42277 km
RCS: 5.0403 m2 (large)
Launch date: June 17, 1985
Source: United States (US)
Launch site: AIR FORCE EASTERN TEST RANGE (AFETR)
aabbcc
Your satellite tracking list
Your tracking list is empty




NASA's NSSDC Master Catalog

Two Line Element Set (TLE):
1 15826U 85048D   18141.57189109 -.00000249 +00000-0 +00000-0 0  9998
2 15826 015.1856 011.2795 0001961 282.1737 077.7714 00.99872385017059
Source of the keplerian elements: AFSPC